User: anonymous   Login
Location: Fensholt
(55.9856°N, 10.0808°E)
Time: 16:59:29
(UTC+00:00)
Language:

Cosmos 1400 Rocket - Orbit

View from above orbital plane
View from above orbital plane
View from above satellite
View from above satellite

Ground track
Ground track

The orbit data is extracted from the following two-line orbital elements,

1 13403U 82079B   20227.82659995 -.00000291  00000-0 -20707-4 0  9997
2 13403  81.1686  26.1286 0034955  71.7530 288.7493 15.07192707 70611
Epoch (UTC): 14 August 2020 19:50:18
Eccentricity: 0.0034955
inclination: 81.1686°
perigee height: 520 km
apogee height: 569 km
right ascension of ascending node: 26.1286°
argument of perigee: 71.7530°
revolutions per day: 15.07192707
mean anomaly at epoch: 288.7493°
orbit number at epoch: 7061

The dashed part of the orbit path shows where the satellite is in the earth's shadow,  

DLR